This demonstration page uses our WeatherBlox Daily Observations layout. Learn more.

Left ArrowRight Arrow

38.20091, -84.87328

Hourly Observations for August 14, 2016

Temp ( °F °C ) Dew Point ( °F °C ) Humidity (%) Winds ( mph kmh ) Pressure ( in mb ) Visibility ( mi km ) Precip ( " mm )
12:53 am 00:53 Clear 76 24.4 72 22.2 88 88 Calm 29.98 1015 10 16 0.00 0.00
1:53 am 01:53 Clear 75 23.9 71 21.7 88 88 SW 7 11 29.98 1015 10 16 0.00 0.00
2:53 am 02:53 Mostly Clear 75 23.9 71 21.7 88 88 WSW 3 6 29.98 1015 10 16 0.00 0.00
3:53 am 03:53 Clear 75 23.9 71 21.7 88 88 Calm 29.98 1015 10 16 0.00 0.00
4:53 am 04:53 Mostly Cloudy 74 23.3 70 21.1 88 88 SSW 3 6 29.99 1016 10 16 0.00 0.00
5:53 am 05:53 Clear 74 23.3 69 20.6 85 85 SSW 3 6 30.00 1016 10 16 0.00 0.00
6:53 am 06:53 Clear 72 22.2 68 20 87 87 SSW 3 6 30.01 1016 10 16 0.00 0.00
7:53 am 07:53 Sunny 74 23.3 69 20.6 85 85 SSW 6 9 30.03 1017 10 16 0.00 0.00
8:53 am 08:53 Sunny 75 23.9 70 21.1 84 84 SSW 7 11 30.04 1017 10 16 0.00 0.00
9:53 am 09:53 Sunny 79 26.1 71 21.7 77 77 SW 10 17 30.06 1018 10 16 0.00 0.00
10:53 am 10:53 Sunny 81 27.2 71 21.7 72 72 SW 8 13 30.08 1019 10 16 0.00 0.00
11:53 am 11:53 Partly Cloudy 84 28.9 72 22.2 67 67 SW 9 15 30.09 1019 10 16 0.00 0.00
12:53 pm 12:53 Mostly Cloudy 85 29.4 72 22.2 65 65 VRB 3 6 30.07 1018 10 16 0.00 0.00
1:53 pm 13:53 Mostly Cloudy 83 28.3 72 22.2 70 70 NW 5 7 30.07 1018 10 16 0.00 0.03
2:33 pm 14:33 Partly Cloudy with Nearby Thunderstorms 83 28.3 72 22.2 70 70 VRB 3 6 30.06 1018 10 16 0.00 0.00
2:48 pm 14:48 Mostly Cloudy 84 29 72 22 66 66 Calm 30.06 1018 10 16 0.00 0.00
2:53 pm 14:53 Mostly Cloudy 84 28.9 72 22.2 67 67 SSE 8 13 30.06 1018 10 16 0.00 0.00
3:49 pm 15:49 Sunny with Nearby Thunderstorms 86 30 72 22 62 62 SSW 9 15 30.03 1017 10 16 0.00 0.00
3:53 pm 15:53 Sunny with Nearby Thunderstorms 85 29.4 71 21.7 63 63 SSW 8 13 30.05 1018 10 16 0.00 0.00
4:12 pm 16:12 Mostly Sunny 84 28.9 71 21.7 65 65 WSW 7 11 30.03 1017 10 16 0.00 0.00
4:53 pm 16:53 Mostly Cloudy 82 27.8 71 21.7 69 69 W 5 7 30.05 1018 10 16 0.02 0.51
5:21 pm 17:21 Sunny with Nearby Thunderstorms 81 27.2 71 21.7 72 72 Calm 30.06 1018 10 16 0.00 0.00
5:37 pm 17:37 Mostly Cloudy with Thunderstorms 75 23.9 68 20 79 79 W 15 24 30.06 1018 6 10 0.01 0.25
5:41 pm 17:41 Mostly Cloudy with Strong Thunderstorms 73 22.8 68 20 84 84 W 15 24 30.06 1018 2 2 0.07 1.78
5:45 pm 17:45 Mostly Cloudy with Strong Thunderstorms 73 22.8 66 18.9 79 79 NW 13 20 30.06 1018 1 1 0.12 3.05
5:51 pm 17:51 Cloudy with Thunderstorms 72 22 66 19 83 83 NNW 9 15 30.06 1018 2 2 0.13 3.30
5:53 pm 17:53 Cloudy with Thunderstorms 72 22.2 66 18.9 82 82 N 6 9 30.06 1018 3 5 0.13 3.30
6:12 pm 18:12 Partly Cloudy 74 23.3 68 20 82 82 SSW 5 7 30.06 1018 10 16 0.00 0.03
6:53 pm 18:53 Sunny 78 25.6 69 20.6 74 74 NW 5 7 30.05 1018 10 16 0.00 0.03
7:53 pm 19:53 Sunny 76 24.4 70 21.1 82 82 Calm 30.06 1018 10 16 0.00 0.00
8:53 pm 20:53 Clear 74 23.3 71 21.7 91 91 Calm 30.08 1019 10 16 0.00 0.00
9:53 pm 21:53 Clear 75 23.9 70 21.1 84 84 SE 3 6 30.08 1019 10 16 0.00 0.00
10:53 pm 22:53 Clear 74 23.3 70 21.1 88 88 Calm 30.09 1019 10 16 0.00 0.00
11:53 pm 23:53 Clear 74 23.3 69 20.6 85 85 Calm 30.09 1019 10 16 0.00 0.00

Powered by AerisWeather